Orbital Elements at Epoch 2459000.5 (2020-May-31.0) TDB
Reference: JPL 25 (heliocentric ecliptic J2000)
Element | Value | Uncertainty (1-sigma) | Units |
e | .1089342042044569 | 4.076e-08 | |
a | 2.855607003993449 | 1.7467e-08 | au |
q | 2.544533727492749 | 1.142e-07 | au |
i | 1.530820712937358 | 4.5671e-06 | deg |
node | 176.1579626533164 | 0.00014753 | deg |
peri | 40.54255771128474 | 0.00014879 | deg |
M | 166.5393895052308 | 2.0294e-05 | deg |
tp | 2458185.119066030924 (2018-Mar-07.61906603) | 9.7425e-05 | TDB |
period | 1762.568825915191 4.83 | 1.6171e-05 4.427e-08 | d yr |
n | .2042473432565532 | 1.874e-09 | deg/d |
Q | 3.166680280494149 | 1.9369e-08 | au |
|
| | Orbit Determination Parameters
Additional Information
|